Location: Jackson Park
(37.2862°N, 79.9123°W)
Time: 11:34:35
(UTC+00:00)

Vanguard 2 Rocket - Pass Details

Date: 14 May 2026
Orbit: 553 x 3286 km, 32.9° (Epoch: 11 June)

Event Time Altitude Azimuth Distance (km) Brightness Sun altitude
Rises 20:52:55 0° 280° (W) 6,728 12.2 39.5°
Reaches altitude 10° 20:57:07 10° 277° (W) 5,925 12.2 38.6°
Maximum altitude 21:16:16 62° 203° (SSW) 3,518 10.6 34.8°
Drops below altitude 10° 21:33:28 10° 128° (SE) 5,382 10.5 31.4°
Sets 21:37:06 0° 125° (SE) 6,107 10.7 30.7°
